| time (UTC) | temp F | wind direction | speed knots | gust knots | rain 1hr in | rain 24hr in | rain mn in | humidity % | barometer mb |
| 20260503184624 | 56 | 1 | 6.1 | 15.6 | 0.00 | 0.00 | 0.00 | 33 | 1014.2 |
| 20260503183104 | 55 | 1 | 6.1 | 20.0 | 0.00 | 0.00 | 0.00 | 33 | 1014.4 |
| 20260503181600 | 56 | 1 | 8.7 | 15.6 | 0.00 | 0.00 | 0.00 | 32 | 1014.4 |
| 20260503180100 | 54 | 1 | 10.4 | 20.9 | 0.00 | 0.00 | 0.00 | 33 | 1014.3 |
| 20260503180002 | 54 | 1 | 10.4 | 20.9 | 0.00 | 0.00 | 0.00 | 33 | 1014.3 |
| 20260503174606 | 54 | 1 | 6.1 | 11.3 | 0.00 | 0.00 | 0.00 | 33 | 1014.6 |
| 20260503173101 | 54 | 1 | 5.2 | 18.2 | 0.00 | 0.00 | 0.00 | 37 | 1014.6 |
| 20260503171614 | 53 | 1 | 4.3 | 16.5 | 0.00 | 0.00 | 0.00 | 41 | 1014.8 |
| 20260503170107 | 52 | 1 | 9.6 | 17.4 | 0.00 | 0.00 | 0.00 | 38 | 1014.7 |
| 20260503081601 | 42 | 1 | 0.0 | 0.0 | 0.00 | 0.00 | 0.00 | 66 | 1012.4 |
| 20260503080109 | 42 | 1 | 0.0 | 2.6 | 0.00 | 0.00 | 0.00 | 65 | 1012.3 |
| 20260503071610 | 44 | 1 | 0.0 | 2.6 | 0.00 | 0.00 | 0.00 | 62 | 1012.1 |
| 20260503054602 | 46 | 1 | 2.6 | 6.1 | 0.00 | 0.00 | 0.00 | 59 | 1012.5 |
| 20260503053057 | 46 | 1 | 1.7 | 6.1 | 0.00 | 0.00 | 0.00 | 58 | 1012.6 |
| 20260503051557 | 47 | 1 | 1.7 | 6.1 | 0.00 | 0.00 | 0.00 | 57 | 1012.8 |
| 20260503050058 | 47 | 1 | 2.6 | 7.0 | 0.00 | 0.00 | 0.00 | 56 | 1012.8 |
| 20260503044558 | 47 | 1 | 0.9 | 5.2 | 0.00 | 0.00 | 0.00 | 55 | 1012.9 |
| 20260503041606 | 48 | 1 | 0.9 | 6.1 | 0.00 | 0.00 | 0.00 | 53 | 1013.2 |
| 20260503040100 | 48 | 1 | 2.6 | 7.8 | 0.00 | 0.00 | 0.00 | 51 | 1013.2 |
| 20260503040005 | 49 | 1 | 1.7 | 7.8 | 0.00 | 0.00 | 0.00 | 51 | 1013.3 |
| 20260503034600 | 49 | 1 | 1.7 | 6.1 | 0.00 | 0.00 | 0.00 | 50 | 1013.2 |
| 20260503033100 | 49 | 1 | 1.7 | 6.1 | 0.00 | 0.00 | 0.00 | 49 | 1013.1 |
| 20260503031600 | 49 | 1 | 2.6 | 7.8 | 0.00 | 0.00 | 0.00 | 48 | 1013.2 |
| 20260503030104 | 50 | 1 | 3.5 | 7.0 | 0.00 | 0.00 | 0.00 | 47 | 1013.2 |
| 20260503030003 | 50 | 1 | 2.6 | 7.0 | 0.00 | 0.00 | 0.00 | 47 | 1013.2 |
| 20260503024600 | 50 | 1 | 2.6 | 7.8 | 0.00 | 0.00 | 0.00 | 47 | 1013.2 |
| 20260503023112 | 51 | 1 | 2.6 | 7.8 | 0.00 | 0.00 | 0.00 | 45 | 1013.3 |
| 20260503021603 | 51 | 1 | 2.6 | 7.8 | 0.00 | 0.00 | 0.00 | 44 | 1013.2 |
| 20260503020106 | 52 | 1 | 2.6 | 9.6 | 0.00 | 0.00 | 0.00 | 44 | 1013.2 |
| 20260503020002 | 52 | 1 | 1.7 | 9.6 | 0.00 | 0.00 | 0.00 | 44 | 1013.3 |
| 20260503014602 | 52 | 1 | 3.5 | 9.6 | 0.00 | 0.00 | 0.00 | 43 | 1013.2 |
| 20260503013102 | 52 | 1 | 3.5 | 8.7 | 0.00 | 0.00 | 0.00 | 43 | 1013.1 |
| 20260503011626 | 53 | 1 | 3.5 | 6.1 | 0.00 | 0.00 | 0.00 | 42 | 1013.0 |
| 20260503010100 | 53 | 1 | 1.7 | 5.2 | 0.00 | 0.00 | 0.00 | 42 | 1013.0 |
| 20260503010003 | 53 | 1 | 1.7 | 5.2 | 0.00 | 0.00 | 0.00 | 42 | 1013.0 |
| 20260503004600 | 53 | 1 | 3.5 | 7.8 | 0.00 | 0.00 | 0.00 | 41 | 1012.9 |
| 20260503003103 | 53 | 1 | 2.6 | 6.1 | 0.00 | 0.00 | 0.00 | 40 | 1012.6 |
| 20260503001600 | 54 | 1 | 1.7 | 6.1 | 0.00 | 0.00 | 0.00 | 39 | 1012.6 |
| 20260503000117 | 54 | 1 | 2.6 | 7.8 | 0.00 | 0.00 | 0.00 | 39 | 1012.4 |
| 20260503000003 | 54 | 1 | 3.5 | 7.8 | 0.00 | 0.00 | 0.00 | 38 | 1012.3 |
| 20260502234605 | 55 | 1 | 1.7 | 8.7 | 0.00 | 0.00 | 0.00 | 38 | 1012.3 |
| 20260502233100 | 55 | 1 | 2.6 | 7.0 | 0.00 | 0.00 | 0.00 | 37 | 1012.2 |
| 20260502231601 | 55 | 1 | 2.6 | 7.0 | 0.00 | 0.00 | 0.00 | 38 | 1012.2 |
| 20260502230100 | 56 | 1 | 2.6 | 8.7 | 0.00 | 0.00 | 0.00 | 38 | 1012.3 |
| 20260502230002 | 56 | 1 | 3.5 | 8.7 | 0.00 | 0.00 | 0.00 | 38 | 1012.3 |
| 20260502224602 | 56 | 1 | 3.5 | 8.7 | 0.00 | 0.00 | 0.00 | 36 | 1012.2 |
| 20260502223100 | 58 | 1 | 4.3 | 12.2 | 0.00 | 0.00 | 0.00 | 35 | 1012.0 |
| 20260502221618 | 58 | 1 | 2.6 | 12.2 | 0.00 | 0.00 | 0.00 | 36 | 1011.9 |
| 20260502220110 | 59 | 1 | 2.6 | 7.0 | 0.00 | 0.00 | 0.00 | 34 | 1011.8 |
| 20260502220002 | 59 | 1 | 2.6 | 7.0 | 0.00 | 0.00 | 0.00 | 35 | 1011.8 |
| 20260502214603 | 58 | 1 | 6.1 | 11.3 | 0.00 | 0.00 | 0.00 | 35 | 1012.0 |
| 20260502213100 | 58 | 1 | 2.6 | 10.4 | 0.00 | 0.00 | 0.00 | 35 | 1011.9 |
| 20260502211600 | 57 | 1 | 2.6 | 5.2 | 0.00 | 0.00 | 0.00 | 36 | 1011.8 |
| 20260502210129 | 57 | 1 | 3.5 | 6.1 | 0.00 | 0.00 | 0.00 | 37 | 1011.6 |
| 20260502210002 | 58 | 1 | 1.7 | 5.2 | 0.00 | 0.00 | 0.00 | 37 | 1011.6 |
| 20260502204600 | 57 | 1 | 3.5 | 9.6 | 0.00 | 0.00 | 0.00 | 36 | 1011.5 |
| 20260502203105 | 58 | 1 | 4.3 | 11.3 | 0.00 | 0.00 | 0.00 | 35 | 1011.7 |
| 20260502201600 | 59 | 1 | 6.1 | 11.3 | 0.00 | 0.00 | 0.00 | 37 | 1011.8 |
| 20260502200129 | 58 | 1 | 1.7 | 9.6 | 0.00 | 0.00 | 0.00 | 37 | 1011.9 |
| 20260502200004 | 58 | 1 | 3.5 | 9.6 | 0.00 | 0.00 | 0.00 | 37 | 1011.9 |
| 20260502194604 | 57 | 1 | 3.5 | 7.8 | 0.00 | 0.00 | 0.00 | 41 | 1012.1 |
| 20260502193100 | 57 | 1 | 2.6 | 10.4 | 0.00 | 0.00 | 0.00 | 40 | 1012.4 |
| 20260502191605 | 57 | 1 | 5.2 | 9.6 | 0.00 | 0.00 | 0.00 | 36 | 1012.6 |
| 20260502190003 | 58 | 318 | 2.6 | 8.7 | 0.00 | 0.00 | 0.00 | 40 | 1012.8 |